Torna al catalogo

STARLINK-31333

AttivoComunicazioniVLEO
NORAD 58971·PAYLOAD·🇺🇸 United States

Lanciato Feb 15, 2024 da Vandenberg Space Force Base

Loading…

Prossimi Passaggi (prossime 24 ore)

TLE

AggiornatoSource: CelesTrak SupGP

Epoca: Sep 15, 2026, 01:52 UTC

1 58971C 24031G   26258.07826389  .00062974  00000+0  18611-2 0  2580
2 58971  53.1577 122.7032 0001410  73.0852 187.2655 15.34349566    19

Traccia STARLINK-31333 in tempo reale con AllMySat

Download on the App Store